{"data":{"norad_id":55306,"intl_designator":"2023-010AP","name":"STARLINK-5295","alt_names":[],"object_type":"PAYLOAD","status":"ACTIVE","operator":null,"country":"US","launch_date":"2023-01-19","launch_site_code":"AFWTR","launch_vehicle":null,"mission":null,"orbit_class":"UNKNOWN","rcs_meters":null,"size_class":null,"mass_kg":null,"dimensions":null,"purposes":["comms"],"wikipedia_slug":null,"has_3d_model":false,"image_url":null,"decayed_at":null,"tle_current":{"epoch":"2026-05-25T03:52:07.940064Z","epoch_age_seconds":58437,"freshness":"FRESH","line1":"1 55306U 23010AP  26145.16120301  .00000146  00000+0  20004-4 0  9997","line2":"2 55306  69.9984 171.7775 0003358 269.6249  90.4525 14.98330707185223","mean_motion":14.98330707,"eccentricity":0.0003358,"inclination_deg":69.9984,"raan_deg":171.7775,"arg_perigee_deg":269.6249,"mean_anomaly_deg":90.4525,"bstar":2.0004e-5,"rev_number":18522,"period_min":96.106953776794,"perigee_km":569.71983056749,"apogee_km":574.3875786447,"semimajor_km":6950.1907046061,"source":"CELESTRAK","updated_at":"2026-05-25T13:38:17.755856Z"}}}